Regional Weather Roundup
Issued by NWS

Home | Current Version | Previous Version | Text Only | Print | Product List | Glossary Off
Versions: 1 2 3 4 5 6 7 8 9 10 11 12 13 14 15 16 17 18 19 20 21 22 23 24 25 26 27 28 29 30 31 32 33 34 35 36 37 38 39 40 41 42 43 44 45 46 47 48 49 50

000
ASUS43 KBIS 290102
RWRND

NORTH DAKOTA REGIONAL WEATHER ROUNDUP
NATIONAL WEATHER SERVICE BISMARCK ND
800 PM CDT SUN MAY 28 2017

NOTE: "FAIR" INDICATES FEW OR NO CLOUDS BELOW 12,000 FEET WITH NO
SIGNIFICANT WEATHER AND/OR OBSTRUCTIONS TO VISIBILITY.


NDZ001>003-009>011-017-290200-
NORTHWEST NORTH DAKOTA

CITY           SKY/WX    TMP DP  RH WIND       PRES   REMARKS
WILLISTON      FAIR      63  40  42 N15G23    30.01R
MINOT          FAIR      61  43  51 N16       29.91S
MINOT AFB      MOSUNNY   61  41  47 NW24G33   29.90F
$$

NDZ018>021-031>035-040>046-290200-
SOUTHWEST NORTH DAKOTA

CITY           SKY/WX    TMP DP  RH WIND       PRES   REMARKS
BISMARCK       FAIR      68  34  28 N25G38    29.89R
DICKINSON      FAIR      64  26  23 NW28G37   29.96R
GARRISON         N/A     57  37  47 NW23G35   29.93R
HETTINGER ARPT MOSUNNY   67  31  26 NW22G33   29.99R
$$

NDZ004>008-012>016-024-026-027-054-290200-
NORTHEAST NORTH DAKOTA

CITY           SKY/WX    TMP DP  RH WIND       PRES   REMARKS
GRAND FORKS    CLOUDY    56  49  77 N17G25    29.77R
GRND FRKS AFB  CLOUDY    55  46  71 N15G23    29.78R
DEVILS LAKE    CLOUDY    56  46  69 N20       29.83S
$$

NDZ022-023-025-028>030-036>039-047>053-290200-
SOUTHEAST NORTH DAKOTA

CITY           SKY/WX    TMP DP  RH WIND       PRES   REMARKS
FARGO          LGT RAIN  55  50  83 N23G31    29.77R
JAMESTOWN      PTSUNNY   57  46  66 N17       29.83S
$$





USA.gov is the U.S. government's official web portal to all federal, state and local government web resources and services.